Location: Unspecified
(0.0000°N, 0.0000°E)
Time: 17:12:17

Vanguard 2 Rocket - Pass Details

Date: 09 December 2017
Orbit: 554 x 3327 km, 32.9° (Epoch: 20 March)

Event Time Altitude Azimuth Distance (km) Brightness Sun altitude
Rises 22:17:53 0° 304° (NW) 6,441 11.3 -57.5°
Reaches altitude 10° 22:24:26 10° 321° (NW) 5,842 10.9 -58.6°
Enters shadow 22:24:37 10° 322° (NW) 5,830 10.9 -58.7°
Maximum altitude 22:35:59 18° 360° (N) 5,529 - -60.5°
Drops below altitude 10° 22:48:11 10° 37° (NE) 6,188 - -62.2°
Sets 22:55:33 0° 55° (NE) 6,941 - -63.2°
